Flag for Canada Weather past 2 weeks in MD of Lunenburg, Nova Scotia, Canada

Now
18 °F

Passing clouds.


Feels Like: 1 °F
Forecast: 9 / 18 °F
Wind: 21 mph from Northwest

Location: Shearwater

Current Time: Mar 3, 2015 at 1:31:06 PM

Latest Report: Mar 3, 2015 at 1:00 PM


Visibility: 15 mi

Pressure: 30.13 "Hg

Humidity: 53%

Dew point: 3 °F

Location of MD of LunenburgLocation

Historic Weather in MD of Lunenburg — Graph

°F

MD of Lunenburg temperature yesterday

Maximum temperature yesterday: 34 °F (at 1:00 PM)
Minimum temperature yesterday: 25 °F (at 8:00 PM)
Average temperature yesterday: 30 °F

Past Weeks' High & Low Weather Summary

 TemperatureHumidityPressure
High37 °F (Feb 25, 5:00 PM)100% (Feb 25, 3:00 PM)30.20 "Hg (Feb 25, 3:00 PM)
Low-4 °F (Feb 24, 8:00 AM)37% (Feb 24, 4:00 PM)29.39 "Hg (Feb 25, 4:00 PM)
Average22 °F73%29.84 "Hg
* Reported Feb 17 8:00 AM — Mar 3 12:00 Noon, MD of Lunenburg, Weather by CustomWeather, © 2015

Note: Actual official high and low records may vary slightly from our data, if they occured in-between our weather recording intervals... More about our weather records

Advertising

MD of Lunenburg weather history for previous 24 hours

 ConditionsComfort  
Time TempWeatherWind HumidityBarometerVisibility
12:00 PM
Tue, Mar 3
16 °FPassing clouds.20 mph57%30.12 "Hg15 mi
11:00 AM14 °FPassing clouds.22 mph62%30.12 "Hg15 mi
10:00 AM14 °FLow level haze.17 mph62%30.10 "Hg15 mi
9:00 AM12 °FLow level haze.18 mph62%30.08 "Hg15 mi
8:00 AM10 °FPassing clouds.22 mph61%30.04 "Hg15 mi
9:00 PM
Mon, Mar 2
25 °FPartly cloudy.17 mph100%29.66 "Hg10 mi
8:00 PM25 °FPassing clouds.26 mph100%29.63 "Hg10 mi
7:00 PM27 °FPassing clouds.21 mph93%29.59 "Hg10 mi
6:00 PM27 °FSnow flurries. Mostly cloudy.20 mph100%29.55 "Hg6 mi
5:50 PM27 °FSnow flurries. More clouds than sun.20 mph100%29.54 "Hg5 mi
5:00 PM28 °FOvercast.21 mph93%29.52 "Hg10 mi
4:00 PM30 °FSnow flurries. Mostly cloudy.24 mph100%29.49 "Hg2 mi
3:48 PM30 °FSnow flurries. Mostly cloudy.22 mph100%29.49 "Hg2 mi
3:00 PM32 °FSnow flurries. Overcast.14 mph100%29.49 "Hg1 mi
2:00 PM34 °FSnow flurries. Overcast.8 mph93%29.51 "Hg10 mi
1:00 PM34 °FLight snow. Low clouds.9 mph93%29.54 "Hg15 mi
Weather by CustomWeather, © 2015

See weather overviewHow to use our weather pages